Regional Weather Roundup
Issued by NWS

Home | Current Version | Previous Version | Text Only | Print | Product List | Glossary Off
Versions: 1 2 3 4 5 6 7 8 9 10 11 12 13 14 15 16 17 18 19 20 21 22 23 24 25 26 27 28 29 30 31 32 33 34 35 36 37 38 39 40 41 42 43 44 45 46 47 48 49 50

000
ASUS45 KCYS 210410
RWRWY

WYOMING REGIONAL WEATHER ROUNDUP
NATIONAL WEATHER SERVICE CHEYENNE WY
1000 PM MDT SUN AUG 20 2017

NOTE:  "FAIR" INDICATES FEW OR NO CLOUDS BELOW 12,000 FEET
WITH NO SIGNIFICANT WEATHER AND/OR OBSTRUCTIONS TO VISIBILITY.

WYZ001-210500-
YELLOWSTONE NATIONAL PARK

CITY           SKY/WX    TMP DP  RH WIND       PRES   REMARKS
LK YELLOWSTONE   N/A     49  38  65 CALM      30.29R
W YELLOWSTONE  NOT AVBL

$$
WYZ002>013-054>058-071-098>099-210500-
NORTHERN WYOMING

CITY           SKY/WX    TMP DP  RH WIND       PRES   REMARKS
JACKSON        FAIR      60  25  26 CALM      30.19R
CODY           FAIR      65  37  35 N3        30.12R
GREYBULL       FAIR      77  34  21 NW14      29.97R
WORLAND        FAIR      71  37  28 NW6       30.00R
SHERIDAN       FAIR      69  38  32 W8        30.03R
BUFFALO        FAIR      73  35  25 NW15G24   30.08R
GILLETTE       FAIR      73  50  44 S9        30.00R
HULETT         FAIR      73  50  43 NE3       30.01S
NEWCASTLE      FAIR      72  46  40 E20G32    30.02S

$$
WYZ014>020-022>026-101>103-210500-
CENTRAL WYOMING

CITY           SKY/WX    TMP DP  RH WIND       PRES   REMARKS
BIG PINEY      FAIR      57  30  35 N13       30.23R
PINEDALE       FAIR      52  32  46 W5        30.25R
DUBOIS         FAIR      59  23  25 NW10      30.21S
LANDER           N/A    N/A N/A N/A MISG      30.09R
RIVERTON       FAIR      71  32  23 NE7       30.09R
CASPER         FAIR      75  35  23 MISG      30.05R
DOUGLAS        FAIR      71  45  39 SE5       30.03F

$$
WYZ021-027>030-104>119-210500-
SOUTHERN WYOMING

CITY           SKY/WX    TMP DP  RH WIND       PRES   REMARKS
EVANSTON       FAIR      69  32  25 NE5       30.24R
KEMMERER         N/A    N/A N/A N/A N9        30.26R
FORT BRIDGER   FAIR      63  38  38 S8        30.27R
ROCK SPRINGS   FAIR      71  33  24 SW13      30.20R
RAWLINS        FAIR      70  35  27 VRB5      30.19R
SARATOGA       FAIR      61  39  44 S7        30.24R
LARAMIE        FAIR      61  37  41 S6        30.24R
CHEYENNE       FAIR      64  48  56 SW5       30.17S
TORRINGTON     FAIR      69  60  73 E8        30.01R
PINE BLUFFS    FAIR      68  57  68 CALM      30.12R

$$



USA.gov is the U.S. government's official web portal to all federal, state and local government web resources and services.